Regional Weather Roundup
Issued by NWS Green Bay, WI

Home | Current Version | Previous Version | Graphics & Text | Print | Product List | Glossary Off
Versions: 1 2 3 4 5 6 7 8 9 10 11 12 13 14 15 16 17 18 19 20 21 22 23 24 25 26 27 28 29 30 31 32 33 34 35 36 37 38 39 40 41 42 43 44 45 46 47 48 49 50

247
ASUS43 KGRB 260811
RWRGRB

NORTH-CENTRAL AND NORTHEAST WISCONSIN REGIONAL WEATHER ROUNDUP
NATIONAL WEATHER SERVICE GREEN BAY WI
300 AM CDT TUE JUL 26 2016

WIZ005-009-010>012-018-019-260900-
NORTH CENTRAL WISCONSIN

CITY           SKY/WX    TMP DP  RH WIND       PRES   REMARKS
IRONWOOD       CLEAR     61  61 100 CALM      30.01R
MANITOWISH WTR FOG       58  58 100 CALM      30.05S VSB 1/4
ARBOR VITAE    CLEAR     62  60  92 CALM      30.06S
EAGLE RIVER    PTCLDY    59  59 100 CALM      30.06R FOG
LAND O LAKES   CLEAR     54  54  99 CALM      30.06S
RHINELANDER    CLEAR     61  59  93 W6        30.07R
PHILLIPS       CLEAR     60  60 100 CALM      30.05S
ANTIGO         CLEAR     57  57  99 CALM      30.07S
TOMAHAWK       CLEAR     56  55  95 CALM      30.07S
MERRILL        CLEAR     57  57 100 CALM      30.07S
$$

WIZ013-073-260900-
NORTHEAST WISCONSIN

CITY           SKY/WX    TMP DP  RH WIND       PRES   REMARKS
IRON MOUNTAIN  CLEAR     58  54  86 CALM      30.02S
MARINETTE      PTCLDY   N/A N/A N/A NW3       30.02R
OCONTO         FAIR     N/A N/A N/A CALM      30.02R
$$

WIZ017-030-035>037-045-260900-
CENTRAL WISCONSIN

CITY           SKY/WX    TMP DP  RH WIND       PRES   REMARKS
MEDFORD        FOG       57  57 100 CALM      30.07S VSB 1/4
WAUSAU         FAIR      64  61  90 CALM      30.05S
MOSINEE        CLEAR     61  61 100 W5        30.07S
MARSHFIELD     CLEAR     64  59  83 W5        30.07R
WISC RAPIDS    CLEAR     62  59  90 CALM      30.07S FOG
STEVENS POINT  CLEAR     58  57  97 CALM      30.07R
WAUPACA        PTCLDY    64  63  97 CALM      30.05R
SHAWANO        FAIR      62  60  92 CALM      30.04S
CLINTONVILLE   PTCLDY    63  59  88 CALM      30.04S
WAUTOMA        PTCLDY    61  60  97 CALM      30.06S
$$

WIZ038-039-048-051-260900-
FOX VALLEY

CITY           SKY/WX    TMP DP  RH WIND       PRES   REMARKS
NWS GREEN BAY  PTCLDY    64  64 100 NW7       30.02S
APPLETON       CLEAR     64  63  94 NW9       30.02S
OSHKOSH        CLEAR     67  61  81 W5        30.03S
FOND DU LAC    CLEAR     63  60  90 CALM      30.04S
$$

WIZ022-050-052-260900-
EAST CENTRAL WISCONSIN

CITY           SKY/WX    TMP DP  RH WIND       PRES   REMARKS
EPHRAIM        FAIR      65  65  97 SW3       30.00S
WASHINGTON ISL NOT AVBL
STURGEON BAY   FAIR      64  63  96 CALM      30.02S
MANITOWOC      PTCLDY    68  61  78 NW6       30.02S
SHEBOYGAN      CLEAR     63  60  90 CALM      30.02F
$$

LMZ563-521-522-541>543-260900-
LAKESHORE

STATION/POSITION TIME  TEMP    WIND        PRES    VSBY  WAVE
                       AIR SEA DIR/SP/G                  HT/PER
                 (UTC) (F)     (DEG/KT/KT) (MB)    (MI)  (FT/S)
SHEBOYGAN LKSHOR 0800   72     290/  9/ 10 1016.4S
KEWAUNEE LKSHORE 0700   68     290/  4/  6 1015.9R
ALGOMA MARINA    0713          320/  5/  6   N/A
NORTHPORT PIER   0700   66      CALM  /  2 1015.9S
N MID LAKE BUOY  0750   69 69  200/  6/  6 1015.2F         1
SISTER BAY LKSHO 0721   68        CALM       N/A
CHAMBERS ISLAND  0700   63      CALM  /  2 1015.9
MENOMINEE LKSHOR 0700   71     260/  3/  4 1015.2F
$$




USA.gov is the U.S. government's official web portal to all federal, state and local government web resources and services.